N8ASV Weather Reports


Display with metric or nautical units.
time (UTC)temp
F
wind
direction
speed
MPH
gust
MPH
rain 1hr
in
rain 24hr
in
rain mn
in
humidity
%
barometer
mb
20260507191015 60 0 2.0 9.0 0.00 0.00 0.00 41 1012.6
20260507190015 60 0 4.0 11.0 0.00 0.00 0.00 42 1012.8
20260507185056 61 0 4.0 11.0 0.00 0.00 0.00 42 1012.8
20260507184038 60 248 2.0 6.0 0.00 0.00 0.00 46 1012.9
20260507183017 60 0 3.0 10.0 0.00 0.00 0.00 46 1012.8
20260507182017 60 293 3.0 9.0 0.00 0.00 0.00 49 1013.1
20260507181018 60 248 2.0 4.0 0.00 0.00 0.00 48 1013.1
20260507180017 60 293 2.0 5.0 0.00 0.00 0.00 49 1013.1
20260507175037 59 293 3.0 8.0 0.00 0.00 0.00 44 1013.3
20260507174037 59 270 2.0 7.0 0.00 0.00 0.00 46 1013.4
20260507173017 59 315 2.0 6.0 0.00 0.00 0.00 55 1013.5
20260507172017 59 315 2.0 5.0 0.00 0.00 0.00 50 1013.5
20260507171017 58 270 2.0 4.0 0.00 0.00 0.00 52 1013.9
20260507170017 58 0 5.0 13.0 0.00 0.00 0.00 45 1013.9
20260507165017 58 293 2.0 4.0 0.00 0.00 0.00 52 1014.0
20260507164017 58 338 3.0 11.0 0.00 0.00 0.00 44 1014.0
20260507163017 58 338 2.0 4.0 0.00 0.00 0.00 52 1014.0
20260507162017 57 338 3.0 7.0 0.00 0.00 0.00 46 1014.1
20260507161017 57 0 5.0 12.0 0.00 0.00 0.00 45 1014.2
20260507160017 57 338 3.0 10.0 0.00 0.00 0.00 50 1014.1
20260507155017 56 315 4.0 10.0 0.00 0.00 0.00 49 1014.0
20260507154017 57 270 2.0 5.0 0.00 0.00 0.00 52 1014.1
20260507153017 56 338 2.0 7.0 0.00 0.00 0.00 51 1014.0
20260507152017 55 338 2.0 7.0 0.00 0.00 0.00 54 1014.3
20260507151017 55 315 2.0 5.0 0.00 0.00 0.00 50 1014.2
20260507150017 55 0 2.0 6.0 0.00 0.00 0.00 52 1014.0
20260507145016 55 338 3.0 11.0 0.00 0.00 0.00 51 1014.0
20260507144016 54 315 2.0 4.0 0.00 0.00 0.00 55 1014.0
20260507143016 54 270 2.0 5.0 0.00 0.00 0.00 55 1014.1
20260507142016 54 293 2.0 6.0 0.00 0.00 0.00 51 1014.1
20260507141017 54 338 2.0 5.0 0.00 0.00 0.00 53 1014.2
20260507140017 53 293 2.0 5.0 0.00 0.00 0.00 53 1014.1
20260507135016 53 315 2.0 7.0 0.00 0.00 0.00 54 1014.1
20260507134016 53 270 1.0 3.0 0.00 0.00 0.00 58 1014.0
20260507133016 52 0 3.0 7.0 0.00 0.00 0.00 53 1013.9
20260507132016 51 338 3.0 7.0 0.00 0.00 0.00 53 1014.1
20260507131017 51 270 1.0 5.0 0.00 0.00 0.00 59 1014.0
20260507130016 50 0 3.0 6.0 0.00 0.00 0.00 59 1013.9
20260507125016 49 338 1.0 3.0 0.00 0.00 0.00 67 1014.0
20260507124016 48 0.0 2.0 0.00 0.00 0.00 72 1014.0
20260507123016 46 0.0 1.0 0.00 0.00 0.00 87 1014.3
20260507122016 44 0.0 1.0 0.00 0.00 0.00 94 1014.3
20260507121016 42 0.0 0.0 0.00 0.00 0.00 94 1014.1
20260507120016 40 0.0 0.0 0.00 0.00 0.00 94 1014.1
20260507115016 38 0.0 0.0 0.00 0.00 0.00 93 1014.1
20260507114016 37 0.0 0.0 0.00 0.00 0.00 93 1014.1
20260507113016 37 0.0 0.0 0.00 0.00 0.00 92 1014.0
20260507112016 36 0.0 0.0 0.00 0.00 0.00 91 1014.1
20260507111016 36 0.0 0.0 0.00 0.00 0.00 91 1014.0
20260507110016 36 0.0 0.0 0.00 0.00 0.00 91 1013.8
20260507105016 37 0.0 0.0 0.00 0.00 0.00 90 1013.7
20260507104016 37 0.0 0.0 0.00 0.00 0.00 90 1013.5
20260507103016 37 0.0 0.0 0.00 0.00 0.00 90 1013.5
20260507102016 38 0.0 0.0 0.00 0.00 0.00 91 1013.5
20260507101016 38 0.0 0.0 0.00 0.00 0.00 91 1013.6
20260507100015 39 0.0 0.0 0.00 0.00 0.00 91 1013.6
20260507095016 39 0.0 0.0 0.00 0.00 0.00 92 1013.6
20260507094015 39 0.0 0.0 0.00 0.00 0.00 92 1013.6
20260507093018 39 0.0 1.0 0.00 0.00 0.00 92 1013.6
20260507092038 39 0.0 0.0 0.00 0.00 0.00 92 1013.5
20260507091037 39 0.0 0.0 0.00 0.00 0.00 92 1013.4
20260507090038 39 0.0 0.0 0.00 0.00 0.00 92 1013.3
20260507085058 39 0.0 0.0 0.00 0.00 0.00 92 1013.2
20260507084037 39 0.0 0.0 0.00 0.00 0.00 92 1013.1
20260507083017 39 0.0 0.0 0.00 0.00 0.00 92 1013.0
20260507082017 39 0.0 0.0 0.00 0.00 0.00 92 1012.9
20260507081037 39 0.0 0.0 0.00 0.00 0.00 92 1012.9
20260507080017 38 0.0 0.0 0.00 0.00 0.00 91 1012.9
20260507075037 39 0.0 0.0 0.00 0.01 0.00 91 1012.9
20260507074017 39 0.0 0.0 0.00 0.01 0.00 91 1013.0
20260507073017 39 0.0 0.0 0.00 0.02 0.00 91 1013.0
20260507072017 39 0.0 0.0 0.00 0.03 0.00 91 1012.9
20260507071058 39 0.0 0.0 0.00 0.03 0.00 91 1012.9
20260507070017 40 0.0 0.0 0.00 0.04 0.00 91 1012.9
20260507065017 40 0.0 0.0 0.00 0.07 0.00 91 1013.0
20260507064017 40 0.0 0.0 0.00 0.09 0.00 91 1013.1
20260507063017 41 0.0 0.0 0.00 0.10 0.00 91 1013.2
20260507062037 41 0.0 0.0 0.00 0.10 0.00 91 1013.1
20260507061017 41 0.0 0.0 0.00 0.10 0.00 91 1013.1
20260507060017 41 0.0 0.0 0.00 0.11 0.00 91 1013.1
20260507055017 41 0.0 0.0 0.00 0.12 0.00 91 1013.2
20260507054017 41 0.0 0.0 0.00 0.15 0.00 91 1013.1
20260507053017 42 0.0 0.0 0.00 0.17 0.00 90 1013.1
20260507052016 42 0.0 0.0 0.00 0.18 0.00 90 1013.2
20260507051017 42 0.0 0.0 0.00 0.21 0.00 90 1013.1
20260507050016 42 0.0 0.0 0.00 0.24 0.00 90 1013.1
20260507045016 42 0.0 0.0 0.00 0.30 0.00 90 1013.2
20260507044016 43 0.0 0.0 0.00 0.37 0.00 90 1013.2
20260507043016 43 0.0 0.0 0.00 0.45 0.00 90 1013.1
20260507042016 43 0.0 0.0 0.00 0.47 0.00 89 1013.1
20260507041016 43 0.0 0.0 0.00 0.49 0.00 89 1013.0
20260507040017 44 0.0 0.0 0.00 0.52 0.52 89 1013.2
20260507035016 44 0.0 0.0 0.00 0.55 0.52 89 1013.1
20260507034016 44 0.0 0.0 0.00 0.59 0.52 88 1013.2
20260507033016 45 0.0 0.0 0.00 0.61 0.52 88 1013.1
20260507032016 45 0.0 0.0 0.00 0.64 0.52 88 1013.0
20260507031036 45 0.0 0.0 0.00 0.64 0.52 88 1013.1
20260507030016 46 0.0 0.0 0.00 0.64 0.52 88 1013.1
20260507025016 46 0.0 0.0 0.00 0.65 0.52 88 1013.1
20260507024015 46 0.0 0.0 0.00 0.67 0.52 88 1013.1
20260507023016 46 0.0 0.0 0.00 0.70 0.52 87 1013.1
20260507022016 47 0.0 0.0 0.00 0.71 0.52 86 1013.0
20260507021015 47 0.0 0.0 0.00 0.75 0.52 85 1012.8
20260507020015 48 0.0 1.0 0.00 0.83 0.52 85 1012.7
20260507015016 48 0.0 1.0 0.00 0.87 0.52 84 1012.6
20260507014036 49 0.0 0.0 0.00 0.91 0.52 83 1012.5
20260507013058 49 0.0 0.0 0.00 0.93 0.52 82 1012.5
20260507012016 49 0.0 0.0 0.00 0.95 0.52 80 1012.2
20260507011018 50 0.0 0.0 0.00 0.96 0.52 78 1012.1
20260507010017 51 0.0 0.0 0.00 0.96 0.52 77 1012.3
20260507005017 52 0.0 0.0 0.00 0.99 0.52 76 1012.3
20260507004037 53 0.0 1.0 0.00 1.04 0.52 74 1012.2
20260507003037 54 0.0 0.0 0.00 1.09 0.52 70 1012.2
20260507002017 55 0.0 0.0 0.00 1.11 0.52 69 1012.0
20260507001017 56 0.0 0.0 0.00 1.11 0.52 66 1011.8
20260507000017 56 0.0 1.0 0.00 1.11 0.52 65 1011.7
20260506235057 56 0.0 1.0 0.00 1.12 0.52 62 1011.7
20260506234017 57 0.0 2.0 0.00 1.15 0.52 62 1011.6
20260506233017 57 0.0 1.0 0.00 1.15 0.52 64 1011.7
20260506232057 57 0.0 2.0 0.00 1.16 0.52 61 1011.6
20260506231017 57 338 2.0 5.0 0.00 1.17 0.52 62 1011.4
20260506230017 58 338 1.0 4.0 0.00 1.19 0.52 63 1011.6
20260506225017 58 338 2.0 3.0 0.00 1.20 0.52 61 1011.5
20260506224017 58 293 1.0 4.0 0.00 1.20 0.52 59 1011.6
20260506223017 58 338 2.0 5.0 0.00 1.21 0.52 58 1011.7
20260506222017 58 338 2.0 4.0 0.00 1.21 0.52 59 1011.8
20260506221017 58 315 1.0 2.0 0.00 1.21 0.52 60 1011.7
20260506220017 58 0 2.0 3.0 0.00 1.22 0.52 57 1011.8
20260506215117 59 338 1.0 3.0 0.00 1.23 0.52 56 1012.0
20260506214017 59 315 1.0 2.0 0.00 1.25 0.52 57 1011.8
20260506213057 59 338 2.0 5.0 0.00 1.26 0.52 56 1011.6
20260506212017 59 338 1.0 3.0 0.00 1.27 0.52 55 1011.7
20260506211017 59 0.0 2.0 0.00 1.28 0.52 55 1011.7
20260506210017 59 0 1.0 3.0 0.00 1.28 0.52 59 1011.4
20260506205017 58 0 2.0 6.0 0.00 1.29 0.52 55 1011.4
20260506204016 58 0 2.0 5.0 0.00 1.30 0.52 59 1011.4
20260506203016 58 338 2.0 4.0 0.00 1.30 0.52 55 1011.3
20260506202016 59 338 1.0 3.0 0.00 1.30 0.52 58 1011.6
20260506201016 59 0 2.0 4.0 0.00 1.31 0.52 57 1011.6
20260506200016 58 0 1.0 4.0 0.00 1.32 0.52 58 1011.6
20260506195016 58 338 1.0 4.0 0.00 1.33 0.52 57 1011.6
20260506194016 59 225 1.0 2.0 0.00 1.34 0.52 60 1011.5
20260506193016 59 0 2.0 5.0 0.00 1.36 0.52 55 1011.4
20260506192016 60 0 2.0 5.0 0.00 1.37 0.52 56 1011.4